Weather History for Edinburgh Airport, United Kingdom

Change the Weather History Date:

Thursday, August 8, 2013

  Actual Average Record
Temperature  
Mean Temperature 58 °F -  
Max Temperature 68 °F 64 °F 82 °F (1997)
Min Temperature 48 °F 49 °F 44 °F (2005)
Degree Days  
Heating Degree Days 7    
Growing Degree Days 8 (Base 50)    
Moisture  
Dew Point 54 °F    
Average Humidity 83    
Maximum Humidity 100    
Minimum Humidity 60    
Precipitation  
Precipitation 0.00 in 0.09 in - ()
Sea Level Pressure  
Sea Level Pressure 30.01 in    
Wind  
Wind Speed 3 mph ()    
Max Wind Speed 13 mph    
Max Gust Speed -    
Visibility 5.1 miles    
Events Fog , Rain    
Averages and records for this station are not official NWS values.
T = Trace of Precipitation, MM = Missing Value Source: Averaged Metar Reports

Daily Weather History Graph

Daily Weather History Graph

Search for Another Location

Airport:

Trip Planner

Search our weather history database for the weather conditions in past years. The results will help you decide how hot, cold, wet, or windy it might be!

Date:

Astronomy

Aug. 08, 2013 Rise Set
Actual Time 5:31 AM BST 9:05 PM BST
Civil Twilight 4:45 AM BST 9:50 PM BST
Nautical Twilight 3:41 AM BST 10:54 PM BST
Astronomical Twilight 1:51 AM BST 12:54 AM BST
Moon 7:33 AM BST (8/8) 9:01 PM BST (8/8)
Length of Visible Light 17h 05m
Length of Day
15h 34m
New Moon, 2% of the Moon is Illuminated
Aug 8
New Moon
Aug 14
First Quarter
Aug 21
Full
Aug 28
Last Quarter
Sep 5
New

Hourly Weather History & Observations

Time (BST) Temp. Dew Point Humidity Pressure Visibility Wind Dir Wind Speed Gust Speed Precip Events Conditions
12:20 AM 55.4 °F 53.6 °F 94% 30.06 in 6.2 mi Calm Calm - N/A Fog Shallow Fog
12:50 AM 51.8 °F 51.8 °F 100% 30.06 in 6.2 mi West 3.5 mph - N/A Fog Shallow Fog
1:20 AM 51.8 °F 51.8 °F 100% 30.04 in 6.2 mi Calm Calm - N/A Fog Shallow Fog
1:50 AM 50.0 °F 50.0 °F 100% 30.04 in 6.2 mi NW 2.3 mph - N/A Fog Shallow Fog
2:20 AM 48.2 °F 48.2 °F 100% 30.04 in 6.2 mi Calm Calm - N/A Fog Shallow Fog
2:50 AM 48.2 °F 48.2 °F 100% 30.04 in 5.0 mi SW 3.5 mph - N/A Fog Shallow Fog
3:20 AM 48.2 °F 48.2 °F 100% 30.04 in 5.0 mi Calm Calm - N/A Fog Shallow Fog
3:50 AM 50.0 °F 50.0 °F 100% 30.04 in 5.6 mi Calm Calm - N/A Fog Fog
4:20 AM 50.0 °F 50.0 °F 100% 30.04 in 5.0 mi Calm Calm - N/A   Mostly Cloudy
4:50 AM 51.8 °F 51.8 °F 100% 30.04 in 3.1 mi Calm Calm - N/A   Overcast
5:20 AM 53.6 °F 53.6 °F 100% 30.04 in 0.9 mi WSW 4.6 mph - N/A   Overcast
5:50 AM 53.6 °F 53.6 °F 100% 30.04 in 0.3 mi West 2.3 mph - N/A Fog Fog
6:20 AM 53.6 °F 53.6 °F 100% 30.04 in 0.3 mi WSW 3.5 mph - N/A Fog Fog
6:50 AM 55.4 °F 55.4 °F 100% 30.04 in 0.2 mi SW 3.5 mph - N/A Fog Fog
7:20 AM 55.4 °F 55.4 °F 100% 30.04 in 0.2 mi SW 2.3 mph - N/A Fog Fog
7:50 AM 55.4 °F 55.4 °F 100% 30.04 in 0.4 mi Variable 2.3 mph - N/A Fog Fog
8:20 AM 55.4 °F 55.4 °F 100% 30.04 in 1.5 mi Variable 3.5 mph - N/A   Mostly Cloudy
8:50 AM 57.2 °F 57.2 °F 100% 30.04 in 5.0 mi Calm Calm - N/A   Mostly Cloudy
9:20 AM 57.2 °F 57.2 °F 100% 30.04 in 6.2 mi Calm Calm - N/A   Scattered Clouds
9:50 AM 59.0 °F 55.4 °F 88% 30.04 in 6.2 mi Variable 3.5 mph - N/A   Scattered Clouds
10:20 AM 60.8 °F 57.2 °F 88% 30.04 in 6.2 mi North 4.6 mph - N/A   Scattered Clouds
10:50 AM 62.6 °F 57.2 °F 82% 30.04 in 6.2 mi Variable 3.5 mph - N/A   Scattered Clouds
11:20 AM 62.6 °F 57.2 °F 82% 30.04 in 6.2 mi North 4.6 mph - N/A   Scattered Clouds
11:50 AM 64.4 °F 57.2 °F 77% 30.04 in 6.2 mi Variable 3.5 mph - N/A   Scattered Clouds
12:20 PM 66.2 °F 57.2 °F 73% 30.01 in 6.2 mi NNW 4.6 mph - N/A   Partly Cloudy
12:50 PM 64.4 °F 55.4 °F 73% 30.01 in 6.2 mi NNW 4.6 mph - N/A   Partly Cloudy
1:20 PM 66.2 °F 55.4 °F 68% 30.01 in 6.2 mi North 5.8 mph - N/A   Scattered Clouds
1:50 PM 66.2 °F 55.4 °F 68% 30.01 in 6.2 mi Variable 3.5 mph - N/A   Scattered Clouds
2:20 PM 68.0 °F 53.6 °F 60% 30.01 in 6.2 mi SSW 4.6 mph - N/A   Scattered Clouds
2:50 PM 66.2 °F 55.4 °F 68% 30.01 in 6.2 mi SW 8.1 mph - N/A   Scattered Clouds
3:20 PM 68.0 °F 53.6 °F 60% 29.98 in 6.2 mi SW 11.5 mph - N/A   Scattered Clouds
3:50 PM 68.0 °F 53.6 °F 60% 29.98 in 6.2 mi SW 12.7 mph - N/A   Partly Cloudy
4:20 PM 68.0 °F 55.4 °F 64% 29.98 in 6.2 mi SW 11.5 mph - N/A   Partly Cloudy
4:50 PM 62.6 °F 55.4 °F 77% 29.98 in 6.2 mi WSW 6.9 mph - N/A   Partly Cloudy
5:20 PM 62.6 °F 57.2 °F 82% 29.98 in 6.2 mi SW 6.9 mph - N/A Rain Light Rain Showers
5:50 PM 64.4 °F 57.2 °F 77% 29.98 in 6.2 mi SSW 8.1 mph - N/A   Partly Cloudy
6:20 PM 66.2 °F 55.4 °F 68% 29.98 in 6.2 mi South 8.1 mph - N/A   Partly Cloudy
6:50 PM 66.2 °F 55.4 °F 68% 29.95 in 6.2 mi SSE 4.6 mph - N/A   Partly Cloudy
7:20 PM 66.2 °F 53.6 °F 64% 29.95 in 6.2 mi SW 8.1 mph - N/A   Partly Cloudy
7:50 PM 64.4 °F 53.6 °F 68% 29.95 in - Variable 3.5 mph - N/A   Clear
8:20 PM 64.4 °F 53.6 °F 68% 29.95 in - SSE 4.6 mph - N/A   Clear
8:50 PM 62.6 °F 51.8 °F 68% 29.95 in - South 9.2 mph - N/A   Clear
9:20 PM 60.8 °F 51.8 °F 72% 29.95 in - South 5.8 mph - N/A   Clear
9:50 PM 60.8 °F 50.0 °F 68% 29.95 in - South 8.1 mph - N/A   Clear
10:20 PM 55.4 °F 48.2 °F 77% 29.95 in 6.2 mi NE 2.3 mph - N/A   Unknown
10:50 PM 59.0 °F 50.0 °F 72% 29.95 in 6.2 mi Variable 3.5 mph - N/A   Unknown
11:20 PM 59.0 °F 51.8 °F 77% 29.92 in 6.2 mi South 5.8 mph - N/A   Unknown
11:50 PM 59.0 °F 51.8 °F 77% 29.92 in 6.2 mi Variable 2.3 mph - N/A   Unknown